Weather Service Report


644 
ASUS42 KTBW 271510
RWRFL 
FLORIDA REGIONAL WEATHER ROUNDUP
NATIONAL WEATHER SERVICE TAMPA BAY RUSKIN FL
1000 AM EST FRI FEB 27 2015

NOTE: "FAIR" INDICATES FEW OR NO CLOUDS BELOW 12,000 FEET WITH NO
SIGNIFICANT WEATHER AND/OR OBSTRUCTIONS TO VISIBILITY.


FLZ001>010-012>015-112-114-115-271600-
PANHANDLE FLORIDA
  
CITY           SKY/WX    TMP DP  RH WIND       PRES   REMARKS
PENSACOLA      MOSUNNY   40  31  70 N12G18    30.38R WCI  33          
PENSACOLA NAS  PTSUNNY   42  33  70 N16       30.37R WCI  34          
MILTON NAS     MOSUNNY   41  30  65 VRB7      30.39R WCI  36          
CRESTVIEW      MOSUNNY   43  31  62 NE8G18    30.39R WCI  38          
DUKE FIELD     PTSUNNY   41  69 100 N9        30.35S WCI  35          
VALPARAISO     PTSUNNY   41  31  66 N14       30.35S WCI  34          
MARY ESTHER    MOSUNNY   41  28  59 N14       30.35S WCI  34          
TRI COUNTY     FAIR      43  32  65 N9        30.38R WCI  38          
PANAMA CITY    FAIR      43  33  68 N9        30.35R WCI  38          
TYNDALL AFB    MOSUNNY   46  34  62 NE9       30.34S WCI  41          
APALACHICOLA   PTSUNNY   48  36  63 NE13      30.32S WCI  43          

STATION/POSITION SKY/WX   TEMP    WIND        PRES    WAVE   SWELL
                          AIR SEA DIR/SP/G            HT/PER HT/PER
                          (F)     (DEG/KT/KT) (MB)    (FT/S) (FT/S)
30.1N   87.6W              42 61   20/ 17/ 21 1027.6R   4/ 4
29.2N   88.2W              47 64   40/ 23/ 29 1027.6R   6/ 7
28.7N   86.0W              51 67   60/ 16/ 19 1026.0R   4/ 5   2/ 8
PANAMA CITY BEAC           42 54   20/  8/ 14 1027.8R
CAPE SAN BLAS    NOT AVBL
TOWER C                    46      30/ 20/ 21 1026.1R
28.5N   84.5W              54 65   50/ 17/ 21 1024.9R   5/ 6   2/ 8

$$
FLZ011-016>038-118-127-128-134-139-239-271600-
NORTH FLORIDA
  
CITY           SKY/WX    TMP DP  RH WIND       PRES   REMARKS
MARIANNA       MOSUNNY   43  32  65 NE13      30.36R WCI  36          
TALLAHASSEE    PTSUNNY   45  35  68 N7        30.34R WCI  41          
PERRY          CLOUDY    46  40  81 N6        30.34S WCI  43          
CROSS CITY       N/A     51  41  68 NE10      30.31R                  
LAKE CITY      FAIR      46  39  76 NE10      30.33R WCI  41          
GAINESVILLE    PTSUNNY   50  40  68 N13       30.29R                  
MAYPORT NAS    CLOUDY    50  40  68 N17G23    30.32R WCI  44          
JACKSONVILLE   CLOUDY    48  42  80 N10       30.32R WCI  43          
JAX NAS        CLOUDY    53  40  61 N15       30.33R                  
JAX CRAIG      CLOUDY    50  38  63 N15G23    30.32R WCI  45          
JAX CECIL      PTSUNNY   48  39  71 N15       30.33R WCI  42          
FERNANDINA BEA FAIR      54  39  58 N15G21    30.31R                  
ST AUGUSTINE   PTSUNNY   52  42  69 N20G26    30.31R                  

STATION/POSITION SKY/WX   TEMP    WIND        PRES    WAVE   SWELL
                          AIR SEA DIR/SP/G            HT/PER HT/PER
                          (F)     (DEG/KT/KT) (MB)    (FT/S) (FT/S)
SHELL POINT                41     360/  8/ 12   N/A
KEATON BEACH               45      40/  6/  9 1026.9R
CEDAR KEY                  48      30/  6/  7 1025.6R
FERNANDINA                 47 55   30/  9/ 15 1026.1R
30.7N   81.3W                 53                N/A     5/ 5
MAYPORT                    48 56   10/ 16/ 21 1026.5R
31.4N   80.9W              46 52   40/ 16/ 19 1027.0R   4/11   2/11
ST AUGUSTINE               50     360/ 22/ 25 1026.1R

$$
FLZ040-043>046-052-053-057-058-063-144-271600-
INTERIOR CENTRAL FLORIDA
  
CITY           SKY/WX    TMP DP  RH WIND       PRES   REMARKS
OCALA          MOSUNNY   52  39  62 N10G16    30.27R                  
THE VILLAGES     N/A     52  45  76 N9G20     30.17R                  
LEESBURG       CLOUDY    54  45  71 N13       30.26R                  
SANFORD        CLOUDY    55  46  71 N14       30.23R                  
ORLANDO EXEC   CLOUDY    55  46  71 N15       30.23R                  
ORLANDO INTL   CLOUDY    56  49  77 N15       30.23R                  
KISSIMMEE      CLOUDY    55  50  82 N6        30.23R                  
WINTER HAVEN   CLOUDY    55  46  71 N9        30.23R                  
LAKELAND       CLOUDY    54  46  76 N9        30.23R                  
BARTOW         CLOUDY    54  46  76 N12G17    30.23R                  
OKEECHOBEE     CLOUDY    57  54  88 N9        30.17R                  

$$
FLZ041-047-054-059-064-141-147-271600-
EAST CENTRAL FLORIDA
  
CITY           SKY/WX    TMP DP  RH WIND       PRES   REMARKS
ORMOND BEACH   CLOUDY    52  45  76 N12G17    30.24R                  
DAYTONA BEACH  CLOUDY    55  45  68 N14G22    30.25R                  
DELAND         CLOUDY    54  43  66 N12G20    30.26R                  
NEW SMYRNA BEA CLOUDY    55  46  71 N13G30    30.24R                  
JFK SPACE CTR  DRIZZLE   57  52  82 N14G23    30.20R                  
TITUSVILLE     CLOUDY    55  52  88 N18       30.21R FOG              
CAPE CANAVERAL PTSUNNY   59  54  82 N16G22    30.19R                  
PATRICK AFB    CLOUDY    59  55  88 N17       30.19R                  
MELBOURNE      CLOUDY    59  53  80 N16       30.19R                  
VERO BEACH     CLOUDY    61  55  81 N14       30.17R                  
FT PIERCE      CLOUDY    61  57  87 N8        30.16R                  
STUART         DRIZZLE   61  59  94 N12G18    30.16R                  

STATION/POSITION SKY/WX   TEMP    WIND        PRES    WAVE   SWELL
                          AIR SEA DIR/SP/G            HT/PER HT/PER
                          (F)     (DEG/KT/KT) (MB)    (FT/S) (FT/S)
28.5N   80.2W              64 68  350/ 17/ 21 1021.2R
28.9N   78.5W              68 73   50/ 16/ 17 1021.2R   4/ 6   3/11
TRIDENT PIER     NOT AVBL
28.4N   80.5W                 63                N/A     3/11
27.6N   80.2W                 72                N/A     5/ 5

$$
FLZ050-056-061-142-242-148-248-149-249-151-251-155-255-
160-260-271600-
WEST CENTRAL FLORIDA
  
CITY           SKY/WX    TMP DP  RH WIND       PRES   REMARKS
CRYSTAL RIVER  FAIR      52  41  66 NE12G17   30.27R                  
INVERNESS      FAIR      52  39  62 N10       30.27R                  
BROOKSVILLE    PTSUNNY   54  44  69 N10       30.26R                  
ZEPHYRHILLS    CLOUDY    54  43  66 NE10      30.25R                  
CLEARWATER     CLOUDY    56  48  74 N12       30.23R                  
TAMPA INTL     CLOUDY    56  45  66 NE9       30.23R                  
TAMPA EXEC     CLOUDY    55  46  71 NE7       30.24R                  
PLANT CITY     CLOUDY   N/A N/A N/A NE9       30.25R                  
MACDILL AFB    CLOUDY    54  49  82 N12       30.22R                  
PETER O KNIGHT CLOUDY    55  46  71 N8        30.23R                  
ST PETERSBURG  CLOUDY    56  48  74 NE13      30.21R                  
SARASOTA       CLOUDY    56  48  74 NE12      30.19R                  
VENICE         PTSUNNY   59  52  77 NE12      30.20R                  

STATION/POSITION SKY/WX   TEMP    WIND        PRES    WAVE   SWELL
                          AIR SEA DIR/SP/G            HT/PER HT/PER
                          (F)     (DEG/KT/KT) (MB)    (FT/S) (FT/S)
CEDAR KEY                  48      30/  6/  7 1025.6R
28.5N   84.5W              54 65   50/ 17/ 21 1024.9R   5/ 6   2/ 8
27.3N   84.3W                 69                N/A     5/ 6
CLEARWATER BEACH           54 61   10/ 13/ 18 1023.5R
MIDDLE TAMPA BAY           54      40/ 15/ 18 1023.4R
VENICE                     58 63   30/ 10/ 13 1022.0R

$$
FLZ066-069-070-075>078-162-262-165-265-271600-
SOUTHWEST FLORIDA AND KEYS
  
CITY           SKY/WX    TMP DP  RH WIND       PRES   REMARKS
PUNTA GORDA    CLOUDY    59  53  80 N14       30.20R                  
FT MYERS       CLOUDY    62  55  77 NE13      30.16R                  
SOUTHWEST INTL CLOUDY    62  55  77 N7        30.16R                  
NAPLES         CLOUDY    63  58  83 NE6       30.14R                  
MARCO ISLAND   CLOUDY    63  57  82 NE10      30.14R                  
IMMOKALEE      CLOUDY   N/A N/A N/A N9        30.17R                  
MARATHON       CLOUDY    70  68  93 N10       30.12R                  
KEY WEST NAS   CLOUDY    72  65  78 NE13      30.12R                  
KEY WEST INTL  CLOUDY    71  65  81 NE12      30.12R                  

STATION/POSITION SKY/WX   TEMP    WIND        PRES    WAVE   SWELL
                          AIR SEA DIR/SP/G            HT/PER HT/PER
                          (F)     (DEG/KT/KT) (MB)    (FT/S) (FT/S)
VENICE                     58 63   30/ 10/ 13 1022.0R
NAPLES                     61 67   20/  6/  9 1020.4R
26.0N   85.6W              66 76   40/ 17/ 21 1021.8R   5/ 6   2/11
DRY TORTUGAS               65      30/ 19/ 21 1019.5R
NW FL BAY                  67      40/ 11/ 14 1019.5R
SAND KEY                   68      40/ 16/ 19 1019.6R
SOMBRERO KEY               68      10/ 14/ 15 1020.2R
LONG KEY                   70 75  360/ 11/ 12 1020.0R
MOLASSES REEF              73 74  360/ 11/ 12 1019.4R

$$
FLZ067-068-071>074-168-172>174-271600-
SOUTHEAST FLORIDA 
  
CITY           SKY/WX    TMP DP  RH WIND       PRES   REMARKS
W PALM BEACH   CLOUDY    65  63  93 N9        30.13R                  
FT LAUDER-EXEC CLOUDY    68  65  90 N6        30.13R                  
FT LAUDERDALE  CLOUDY    68  65  90 N12       30.12R                  
POMPANO BEACH  CLOUDY    68  64  87 N10       30.13R                  
PEMBROKE PINES CLOUDY    70  64  81 N12       30.15R                  
OPA LOCKA      CLOUDY    71  64  78 N10       30.14R                  
MIAMI          CLOUDY    72  64  76 NW9       30.13R                  
WEST KENDALL   CLOUDY    71  65  81 N9        30.13R                  
HOMESTEAD      PTSUNNY   72  64  78 NW9       30.12R                  

STATION/POSITION SKY/WX   TEMP    WIND        PRES    WAVE   SWELL
                          AIR SEA DIR/SP/G            HT/PER HT/PER
                          (F)     (DEG/KT/KT) (MB)    (FT/S) (FT/S)
PORT EVERGLADES            69     320/  9/ 13 1020.0

Return to Home page


Western Regional Climate Center, wrcc@dri.edu